�N����,����,�~����,�C��,���x,�C��,����,���ϕ���,�ő�u�ԕ���,�ő厞����,���˗�,�I�_���x,�n�����x,�ő啗���N��,DTYPE
"20/06/21","00:10",0.0,16.9,87.4,1005.5,342.8,1.8,3.3,334.5,0.00,14.8,20.7,"00:06:32",1
"20/06/21","00:20",0.0,16.8,87.8,1005.0,335.8,2.0,2.9,335.3,0.00,14.8,20.5,"00:12:00",1
"20/06/21","00:30",0.0,16.8,88.1,1005.2,324.8,2.5,3.9,332.7,0.00,14.9,20.7,"00:28:40",1
"20/06/21","00:40",0.0,16.9,88.3,1005.2,326.9,3.1,4.0,335.2,0.00,15.0,20.3,"00:34:32",1
"20/06/21","00:50",0.0,17.0,88.3,1005.0,329.6,2.5,4.2,337.9,0.00,15.1,20.5,"00:47:12",1
"20/06/21","01:00",0.0,17.0,88.5,1005.0,329.6,2.7,4.2,340.6,0.00,15.1,20.5,"00:59:28",1
"20/06/21","01:10",0.0,17.0,88.5,1004.8,329.2,2.6,3.7,326.8,0.00,15.1,20.3,"01:03:36",1
"20/06/21","01:20",0.0,17.0,88.6,1005.0,326.5,3.6,4.9,317.4,0.00,15.1,20.3,"01:19:52",1
"20/06/21","01:30",0.0,17.0,88.5,1005.2,324.8,3.5,4.8,331.5,0.00,15.1,20.3,"01:20:48",1
"20/06/21","01:40",0.0,17.0,88.6,1005.0,324.9,3.5,5.1,334.0,0.00,15.1,20.1,"01:33:20",1
"20/06/21","01:50",0.0,16.8,88.6,1005.2,342.3,1.7,4.0,336.2,0.00,14.9,20.3,"01:41:52",1
"20/06/21","02:00",0.0,16.6,88.9,1005.2,320.6,1.6,2.6,317.1,0.00,14.8,19.9,"01:59:28",1
"20/06/21","02:10",0.0,16.4,89.1,1005.0,305.4,1.7,3.3,314.0,0.00,14.6,20.0,"02:02:24",1
"20/06/21","02:20",0.0,16.3,89.3,1005.7,318.8,1.6,2.5,325.7,0.00,14.6,19.8,"02:16:32",1
"20/06/21","02:30",0.0,16.3,89.7,1005.5,322.3,1.7,3.2,327.3,0.00,14.6,19.9,"02:27:20",1
"20/06/21","02:40",0.0,16.4,90.0,1005.2,320.6,2.1,3.2,328.6,0.00,14.8,19.9,"02:32:56",1
"20/06/21","02:50",0.0,16.3,90.3,1004.8,320.3,2.0,2.9,334.6,0.00,14.7,19.8,"02:43:36",1
"20/06/21","03:00",0.0,16.3,90.5,1004.8,327.5,2.2,4.1,327.7,0.00,14.8,19.8,"02:59:16",1
"20/06/21","03:10",0.0,16.2,90.7,1004.8,326.8,2.7,3.6,316.8,0.00,14.7,20.0,"03:05:36",1
"20/06/21","03:20",0.0,16.1,90.9,1004.8,325.3,2.6,3.5,333.6,0.00,14.7,19.7,"03:15:04",1
"20/06/21","03:30",0.0,16.1,91.0,1004.5,314.3,2.2,3.4,332.4,0.00,14.7,19.7,"03:21:20",1
"20/06/21","03:40",0.0,16.0,91.0,1004.8,330.3,2.3,3.7,344.4,0.00,14.6,19.7,"03:32:32",1
"20/06/21","03:50",0.0,16.0,91.1,1005.0,326.9,2.3,3.6,328.7,0.00,14.6,19.8,"03:42:56",1
"20/06/21","04:00",0.0,16.1,91.3,1004.8,322.3,2.5,4.2,321.0,0.00,14.7,19.7,"03:50:02",1
"20/06/21","04:10",0.0,16.0,91.2,1004.8,335.4,2.0,3.9,333.0,0.00,14.6,19.6,"04:01:20",1
"20/06/21","04:20",0.0,15.8,91.4,1005.2,324.4,2.2,3.3,315.6,0.00,14.4,19.6,"04:12:00",1
"20/06/21","04:30",0.0,15.9,91.6,1005.0,329.2,2.2,4.7,326.9,0.00,14.6,19.6,"04:29:36",1
"20/06/21","04:40",0.0,16.0,91.6,1005.0,329.1,2.8,4.5,338.2,0.00,14.7,19.4,"04:34:10",1
"20/06/21","04:50",0.0,16.1,91.7,1004.5,326.0,3.5,5.5,323.7,0.00,14.8,19.4,"04:40:02",1
"20/06/21","05:00",0.0,16.1,91.8,1004.8,328.4,3.6,5.1,325.2,0.00,14.8,19.3,"04:54:24",1
"20/06/21","05:10",0.0,16.1,91.8,1005.0,324.2,2.7,4.9,311.5,0.00,14.8,19.4,"05:01:12",1
"20/06/21","05:20",0.0,16.1,91.9,1004.8,326.7,2.5,4.5,323.7,0.00,14.8,19.4,"05:11:28",1
"20/06/21","05:30",0.0,16.0,92.0,1005.0,331.6,2.1,3.9,333.2,0.00,14.7,19.5,"05:23:04",1
"20/06/21","05:40",0.0,16.2,92.1,1005.0,329.2,2.5,4.8,322.5,0.00,15.0,19.4,"05:36:16",1
"20/06/21","05:50",0.0,16.4,92.1,1004.8,334.5,1.8,4.0,332.2,0.02,15.2,19.2,"05:43:20",1
"20/06/21","06:00",0.0,16.8,92.0,1005.0,335.4,2.0,3.6,324.7,0.03,15.5,19.2,"05:52:56",1
"20/06/21","06:10",0.0,17.3,91.8,1005.0,329.5,2.0,3.1,331.9,0.04,16.0,19.4,"06:08:00",1
"20/06/21","06:20",0.0,17.6,91.3,1005.2,327.2,2.3,4.0,330.6,0.06,16.2,19.5,"06:14:56",1
"20/06/21","06:30",0.0,17.9,90.7,1005.2,325.6,2.3,4.1,340.0,0.08,16.4,19.6,"06:24:16",1
"20/06/21","06:40",0.0,18.3,89.8,1005.5,330.4,3.1,5.8,334.5,0.10,16.6,19.5,"06:34:02",1
"20/06/21","06:50",0.0,19.0,88.4,1005.0,328.6,2.5,4.2,321.5,0.12,17.1,19.6,"06:40:32",1
"20/06/21","07:00",0.0,19.6,86.9,1005.2,315.1,2.1,4.0,333.2,0.14,17.4,20.0,"06:51:20",1
"20/06/21","07:10",0.0,20.1,84.6,1005.0,329.9,2.0,3.5,331.9,0.16,17.5,20.0,"07:08:08",1
"20/06/21","07:20",0.0,20.6,82.3,1005.0,333.9,2.0,3.7,326.2,0.19,17.5,20.1,"07:11:44",1
"20/06/21","07:30",0.0,21.3,79.6,1004.5,334.2,1.2,3.4,346.3,0.21,17.7,20.3,"07:20:56",1
"20/06/21","07:40",0.0,22.1,76.5,1005.0,310.6,1.1,2.1,238.6,0.24,17.8,20.6,"07:37:12",1
"20/06/21","07:50",0.0,22.3,74.0,1005.2,262.0,1.1,2.6,319.0,0.26,17.5,20.9,"07:49:28",1
"20/06/21","08:00",0.0,22.7,72.5,1004.8,305.4,1.5,2.8,345.5,0.28,17.5,20.9,"07:55:44",1
"20/06/21","08:10",0.0,23.2,72.1,1004.8,257.1,1.2,3.1,318.2,0.31,17.9,21.2,"08:07:30",1
"20/06/21","08:20",0.0,23.7,70.0,1004.5,233.1,0.8,2.5,263.3,0.34,17.9,21.4,"08:12:56",1
"20/06/21","08:30",0.0,24.2,67.8,1004.3,178.1,1.0,2.0,117.2,0.37,17.9,21.5,"08:22:08",1
"20/06/21","08:40",0.0,24.9,66.0,1004.3,258.0,0.6,1.9,8.8,0.35,18.2,21.8,"08:39:52",1
"20/06/21","08:50",0.0,24.8,64.7,1004.3,136.3,1.1,3.3,112.3,0.35,17.7,22.1,"08:47:28",1
"20/06/21","09:00",0.0,25.2,65.3,1003.6,125.8,1.1,3.4,169.4,0.42,18.3,22.5,"08:56:42",1
"20/06/21","09:10",0.0,25.5,66.2,1003.4,159.7,1.1,3.1,121.7,0.41,18.8,22.8,"09:04:00",1
"20/06/21","09:20",0.0,25.5,64.6,1003.6,177.8,1.2,2.9,109.9,0.46,18.4,22.9,"09:10:08",1
"20/06/21","09:30",0.0,26.1,63.3,1003.4,19.9,1.6,3.2,106.5,0.47,18.6,23.3,"09:28:24",1
"20/06/21","09:40",0.0,26.0,63.6,1003.1,139.6,1.6,3.5,129.4,0.48,18.6,23.6,"09:32:56",1
"20/06/21","09:50",0.0,26.2,63.1,1003.1,102.7,1.8,4.7,109.2,0.49,18.7,24.0,"09:46:48",1
"20/06/21","10:00",0.0,26.3,63.6,1003.8,184.9,1.8,4.0,154.7,0.53,18.9,24.2,"09:59:36",1
"20/06/21","10:10",0.0,26.8,62.8,1003.1,140.1,2.0,4.7,103.6,0.55,19.2,24.6,"10:01:28",1
"20/06/21","10:20",0.0,27.0,61.5,1003.6,130.2,1.7,3.3,123.5,0.55,19.0,24.7,"10:18:16",1
"20/06/21","10:30",0.0,27.1,62.4,1003.6,182.6,1.3,3.6,105.6,0.41,19.3,25.0,"10:21:04",1
"20/06/21","10:40",0.0,27.6,60.0,1003.1,178.0,1.5,3.2,189.2,0.62,19.2,25.2,"10:37:20",1
"20/06/21","10:50",0.0,27.8,59.6,1003.4,146.4,1.5,2.7,109.6,0.62,19.3,25.5,"10:49:44",1
"20/06/21","11:00",0.0,27.6,60.6,1003.6,142.2,1.8,3.9,135.8,0.50,19.3,25.7,"10:58:08",1
"20/06/21","11:10",0.0,27.5,59.4,1003.4,150.6,1.5,3.4,147.4,0.46,18.9,26.0,"11:04:16",1
"20/06/21","11:20",0.0,27.4,57.7,1003.4,130.3,1.8,4.5,228.3,0.42,18.4,26.3,"11:18:32",1
"20/06/21","11:30",0.0,27.7,58.7,1003.1,195.7,1.5,3.3,219.6,0.44,18.9,26.4,"11:29:36",1
"20/06/21","11:40",0.0,27.6,59.8,1002.6,142.4,1.5,2.6,118.0,0.21,19.1,26.5,"11:39:52",1
"20/06/21","11:50",0.0,27.1,60.7,1002.4,105.5,1.5,3.5,115.6,0.17,18.9,26.6,"11:47:36",1
"20/06/21","12:00",0.0,27.2,59.8,1002.2,87.3,1.1,2.5,113.9,0.19,18.8,26.3,"11:50:02",1
"20/06/21","12:10",0.0,27.1,60.5,1001.9,119.4,1.5,3.4,112.2,0.12,18.8,26.3,"12:01:28",1
"20/06/21","12:20",0.0,26.8,60.5,1001.7,120.7,2.0,4.8,117.8,0.10,18.6,26.3,"12:17:12",1
"20/06/21","12:30",0.0,26.9,60.1,1001.2,101.7,1.6,3.5,109.2,0.13,18.5,26.2,"12:21:20",1
"20/06/21","12:40",0.0,27.7,59.2,1001.0,140.3,1.8,3.7,101.3,0.35,19.1,26.0,"12:34:24",1
"20/06/21","12:50",0.0,28.1,57.7,1001.5,127.2,2.1,4.7,99.7,0.34,19.0,25.9,"12:49:28",1
"20/06/21","13:00",0.0,27.5,57.3,1001.2,120.3,2.2,4.7,111.8,0.23,18.3,26.2,"12:52:32",1
"20/06/21","13:10",0.0,27.3,58.7,1001.0,119.4,2.3,4.7,110.7,0.21,18.5,26.0,"13:01:04",1
"20/06/21","13:20",0.0,27.2,59.2,1001.2,113.2,1.8,4.2,148.7,0.17,18.6,25.8,"13:15:12",1
"20/06/21","13:30",0.0,27.3,59.1,1001.0,132.1,2.0,3.6,118.8,0.24,18.7,26.1,"13:28:40",1
"20/06/21","13:40",0.0,28.0,58.2,1001.0,129.1,1.8,4.4,166.8,0.31,19.1,25.8,"13:39:12",1
"20/06/21","13:50",0.0,27.5,57.9,1000.5,113.1,2.3,5.0,111.9,0.16,18.5,25.7,"13:44:24",1
"20/06/21","14:00",0.0,27.2,58.3,1000.8,119.4,2.0,3.5,116.9,0.14,18.3,25.7,"13:55:20",1
"20/06/21","14:10",0.0,27.3,57.9,1000.5,131.6,2.5,4.7,106.0,0.15,18.3,25.8,"14:01:36",1
"20/06/21","14:20",0.0,27.4,57.3,1000.5,129.7,2.3,5.4,109.9,0.21,18.3,25.6,"14:14:24",1
"20/06/21","14:30",0.0,27.5,56.5,1000.8,142.2,1.8,4.1,182.8,0.24,18.1,25.7,"14:29:12",1
"20/06/21","14:40",0.0,27.6,55.9,1001.0,150.4,2.2,5.9,139.3,0.22,18.0,25.8,"14:32:40",1
"20/06/21","14:50",0.0,27.4,55.5,1001.0,145.3,2.6,5.4,111.9,0.19,17.7,25.4,"14:44:40",1
"20/06/21","15:00",0.0,27.3,56.7,1001.0,141.5,2.1,4.1,109.9,0.17,18.0,25.7,"14:59:20",1
"20/06/21","15:10",0.0,27.3,57.3,1001.0,126.5,2.0,3.6,122.5,0.16,18.2,25.6,"15:05:28",1
"20/06/21","15:20",0.0,27.0,57.3,1000.5,117.6,2.3,4.9,122.6,0.13,17.9,25.4,"15:19:04",1
"20/06/21","15:30",0.0,26.9,58.1,1001.2,113.8,2.6,5.6,114.7,0.13,18.0,25.2,"15:22:00",1
"20/06/21","15:40",0.0,26.8,57.8,1001.0,123.1,2.7,4.8,140.1,0.13,17.8,25.5,"15:31:04",1
"20/06/21","15:50",0.0,26.8,57.0,1001.5,115.7,2.2,5.4,98.8,0.14,17.6,25.4,"15:49:12",1
"20/06/21","16:00",0.0,26.8,58.3,1001.2,126.5,2.0,4.5,123.0,0.13,18.0,25.2,"15:56:40",1
"20/06/21","16:10",0.0,26.7,58.3,1001.0,140.9,2.3,5.8,127.9,0.12,17.9,25.1,"16:04:40",1
"20/06/21","16:20",0.0,26.6,57.4,1001.2,113.4,2.1,5.1,109.3,0.12,17.5,25.1,"16:18:56",1
"20/06/21","16:30",0.0,26.4,57.3,1001.2,105.1,2.2,5.2,113.9,0.10,17.3,25.2,"16:28:16",1
"20/06/21","16:40",0.0,26.3,58.1,1001.5,104.7,2.5,4.1,110.6,0.08,17.5,25.0,"16:31:52",1
"20/06/21","16:50",0.0,26.1,58.5,1001.2,111.6,1.6,3.6,116.5,0.07,17.4,25.1,"16:40:40",1
"20/06/21","17:00",0.0,25.9,59.3,1001.2,120.6,1.7,4.3,96.4,0.05,17.4,24.7,"16:56:40",1
"20/06/21","17:10",0.0,25.8,60.1,1001.7,120.8,1.8,5.2,120.1,0.04,17.5,24.7,"17:09:52",1
"20/06/21","17:20",0.0,25.7,61.4,1001.7,108.6,2.0,4.8,127.2,0.03,17.8,24.8,"17:12:00",1
"20/06/21","17:30",0.0,25.6,63.0,1001.7,123.4,1.8,4.3,106.1,0.03,18.1,24.6,"17:22:56",1
"20/06/21","17:40",0.0,25.5,64.1,1001.7,117.7,1.6,3.6,105.8,0.03,18.3,24.5,"17:38:32",1
"20/06/21","17:50",0.0,25.4,64.9,1001.7,116.1,2.5,4.8,101.2,0.03,18.4,24.4,"17:46:24",1
"20/06/21","18:00",0.0,25.3,65.8,1001.7,120.8,2.0,4.0,116.8,0.02,18.5,24.6,"17:59:20",1
"20/06/21","18:10",0.0,25.2,66.1,1001.9,113.5,1.6,3.7,119.2,0.02,18.5,24.2,"18:08:24",1
"20/06/21","18:20",0.0,25.1,66.3,1002.2,118.1,1.6,4.0,138.6,0.01,18.4,24.4,"18:14:24",1
"20/06/21","18:30",0.0,25.1,66.6,1002.2,95.8,1.6,3.2,113.2,0.01,18.5,24.2,"18:23:36",1
"20/06/21","18:40",0.0,24.9,67.0,1002.4,100.7,1.7,4.1,107.6,0.00,18.4,24.1,"18:34:56",1
"20/06/21","18:50",0.0,24.8,67.0,1002.2,95.4,1.8,3.6,108.8,0.00,18.3,24.0,"18:42:32",1
"20/06/21","19:00",0.0,24.6,67.3,1002.4,10.8,1.0,2.4,104.1,0.00,18.2,23.9,"18:52:08",1
"20/06/21","19:10",0.0,24.4,67.7,1002.4,33.6,1.0,2.0,18.7,0.00,18.1,23.9,"19:04:32",1
"20/06/21","19:20",0.0,24.2,68.1,1002.2,67.2,0.7,2.4,113.2,0.00,18.0,23.8,"19:19:52",1
"20/06/21","19:30",0.0,24.1,68.3,1002.4,78.6,1.0,2.2,121.7,0.00,17.9,23.8,"19:25:28",1
"20/06/21","19:40",0.0,24.0,68.5,1002.6,82.0,1.0,2.8,96.7,0.00,17.9,23.6,"19:31:28",1
"20/06/21","19:50",0.0,23.8,68.7,1003.1,106.3,1.5,3.2,110.6,0.00,17.7,23.7,"19:46:24",1
"20/06/21","20:00",0.0,23.8,68.8,1003.1,110.6,1.1,2.7,112.9,0.00,17.8,23.3,"19:52:24",1
"20/06/21","20:10",0.0,23.7,68.8,1003.4,100.9,1.1,2.6,110.8,0.00,17.7,23.5,"20:06:32",1
"20/06/21","20:20",0.0,23.7,68.8,1003.6,101.7,1.7,3.6,102.2,0.00,17.7,23.3,"20:12:40",1
"20/06/21","20:30",0.0,23.6,69.0,1003.6,97.1,1.3,3.1,109.7,0.00,17.6,23.2,"20:21:52",1
"20/06/21","20:40",0.0,23.5,69.5,1003.8,108.3,1.1,2.8,112.5,0.00,17.6,23.1,"20:31:04",1
"20/06/21","20:50",0.0,23.4,70.1,1003.8,94.4,0.8,2.5,105.2,0.00,17.7,23.0,"20:41:52",1
"20/06/21","21:00",0.0,23.2,70.4,1003.8,358.2,0.7,1.9,92.7,0.00,17.6,23.0,"20:50:32",1
"20/06/21","21:10",0.0,23.0,71.3,1004.1,28.5,0.6,1.2,344.7,0.00,17.6,22.9,"21:04:16",1
"20/06/21","21:20",0.0,22.8,72.2,1004.1,16.7,0.6,1.6,51.4,0.00,17.6,22.8,"21:12:40",1
"20/06/21","21:30",0.0,22.8,72.5,1004.3,85.8,1.0,2.7,110.8,0.00,17.6,22.9,"21:26:56",1
"20/06/21","21:40",0.0,22.8,72.4,1003.8,119.4,1.2,3.6,114.6,0.00,17.6,22.8,"21:34:08",1
"20/06/21","21:50",0.0,22.8,72.6,1003.8,106.6,1.0,2.4,117.5,0.00,17.7,22.7,"21:46:16",1
"20/06/21","22:00",0.0,22.7,73.2,1003.8,86.2,0.8,2.0,108.1,0.00,17.7,22.8,"21:53:20",1
"20/06/21","22:10",0.0,22.6,73.6,1003.8,76.5,0.8,2.1,116.5,0.00,17.7,22.5,"22:00:24",1
"20/06/21","22:20",0.0,22.6,73.8,1003.8,108.2,1.0,2.4,102.7,0.00,17.7,22.6,"22:19:04",1
"20/06/21","22:30",0.0,22.5,74.2,1003.8,352.9,1.0,1.8,349.9,0.00,17.7,22.5,"22:25:36",1
"20/06/21","22:40",0.0,22.1,74.9,1003.6,331.8,0.8,2.0,335.2,0.00,17.5,22.5,"22:30:40",1
"20/06/21","22:50",0.0,22.1,75.5,1003.8,78.6,0.8,2.1,140.1,0.00,17.6,22.4,"22:46:56",1
"20/06/21","23:00",0.0,22.2,75.2,1003.8,345.1,1.0,2.0,336.8,0.00,17.6,22.4,"22:59:28",1
"20/06/21","23:10",0.0,22.1,75.3,1003.6,319.0,0.7,2.0,320.4,0.00,17.6,22.4,"23:01:52",1
"20/06/21","23:20",0.0,21.9,75.9,1003.6,339.7,1.3,2.2,336.8,0.00,17.5,22.2,"23:11:28",1
"20/06/21","23:30",0.0,21.6,76.7,1003.4,330.9,1.2,1.8,337.8,0.00,17.4,22.1,"23:20:32",1
"20/06/21","23:40",0.0,21.3,77.6,1002.9,306.9,0.8,1.6,327.0,0.00,17.3,22.0,"23:30:08",1
"20/06/21","23:50",0.0,21.0,78.8,1003.1,312.5,1.1,1.7,325.5,0.00,17.2,22.2,"23:49:20",1
"20/06/21","24:00",0.0,20.9,79.8,1003.1,309.6,1.0,1.9,323.1,0.00,17.3,22.0,"23:55:20",1
